Wind_Speed
21 20 20 20 21 22 25 27 29 29 28 28 27 27 26 26 27 28 29 31 33 35 36 37 39 41 42 43 44 47 48 50 53 55 57 58 58 57 57 59 60 59 59
18 19 19 21 24 27 29 31 30 29 27 26 26 26 27 28 30 31 33 35 37 40 42 43 45 47 48 49 51 52 54 54 56 58 61 61 60 58 61 62 62 61 61
18 20 22 25 28 31 32 32 31 29 28 27 28 28 30 32 34 36 39 42 44 46 49 50 52 53 54 55 56 58 59 60 60 61 64 66 65 63 61 62 63 62 61
21 23 26 29 31 32 32 31 30 30 30 31 32 33 35 37 39 42 44 47 49 51 53 54 55 56 58 59 60 62 63 64 64 64 66 68 70 71 69 64 63 64 63
25 27 28 29 29 29 29 30 30 31 33 34 36 38 39 41 43 45 47 49 51 53 55 57 59 60 62 64 65 67 68 69 70 71 71 71 72 72 74 72 66 64 63
26 25 25 26 27 28 29 30 31 33 35 36 38 40 41 43 45 48 50 52 54 57 59 61 63 64 65 67 68 69 70 71 72 72 72 71 70 68 68 69 67 64 60
24 24 24 25 26 27 29 30 32 34 36 38 40 42 44 47 49 51 53 55 57 59 61 62 64 65 66 67 68 68 69 69 70 70 70 69 68 67 65 65 65 64 63
24 24 24 25 27 28 30 31 34 36 39 41 43 46 48 50 52 53 55 57 59 61 63 65 67 69 70 71 72 73 73 74 74 74 74 74 74 73 72 70 69 68 67
24 24 25 26 28 30 32 35 38 40 42 44 46 48 49 51 53 56 58 61 63 65 67 70 72 74 76 77 78 79 79 80 80 80 80 79 78 78 77 76 75 75 74
24 25 27 29 32 34 36 39 41 43 44 46 48 50 52 55 57 60 62 65 68 71 74 76 78 80 82 83 83 84 84 84 84 84 83 82 81 80 79 79 78 78 79
25 27 30 33 35 37 39 41 42 45 47 50 53 56 58 61 63 66 69 72 75 78 80 82 84 86 87 88 88 88 88 88 86 85 84 84 83 82 81 80 79 78 77
27 30 32 34 36 39 41 44 47 50 54 57 59 62 65 68 71 73 76 79 82 85 88 90 91 91 91 91 91 90 89 88 86 85 84 83 81 80 79 78 77 76 75
31 33 35 37 40 44 47 51 54 57 60 63 65 68 71 75 78 81 84 87 90 93 95 96 96 95 93 92 91 90 88 86 84 82 81 80 79 78 76 75 73 73 72
34 35 38 42 46 49 53 56 60 63 66 68 71 74 77 80 84 87 90 94 97 98 98 97 95 93 91 89 87 86 84 82 79 78 78 77 77 76 75 74 72 71 71
36 39 43 47 51 54 58 62 65 68 71 74 77 80 83 86 89 92 95 98 100 100 98 95 91 88 85 82 81 79 78 76 75 74 73 73 73 73 74 73 72 71 70
41 45 49 53 57 60 64 67 70 72 75 78 81 84 87 91 93 96 97 97 96 94 91 87 83 79 77 75 75 74 73 73 73 73 72 72 72 73 73 73 72 71 71
46 50 55 59 62 66 68 71 73 75 78 82 85 89 91 93 94 94 92 90 86 82 78 75 73 72 71 72 72 73 74 74 75 76 75 74 74 76 77 76 74 73 73
52 56 60 63 66 68 71 73 76 79 83 86 89 92 92 91 89 85 81 77 73 71 69 69 69 69 71 73 75 77 79 80 81 82 82 81 79 80 81 80 78 75 73
57 60 63 65 67 70 73 76 79 83 86 88 89 89 86 82 78 74 71 69 67 67 67 69 71 74 76 80 82 84 84 84 84 84 83 82 80 78 79 78 76 73 70
60 62 65 67 70 73 75 79 82 85 86 86 84 81 77 74 71 69 68 68 69 70 72 75 78 81 84 86 87 88 88 86 84 80 76 74 72 69 68 68 67 65 62
63 65 68 70 73 75 78 82 84 85 84 81 77 73 71 69 69 69 71 73 75 77 80 82 85 87 89 90 90 89 87 84 79 74 68 64 61 59 57 55 54 52 50
66 69 71 73 75 78 81 83 83 81 78 74 71 70 69 70 72 74 76 79 83 86 88 90 91 92 92 91 89 85 80 75 71 65 59 54 50 47 45 42 41 40 39
69 71 73 75 77 80 82 81 79 75 71 69 68 69 70 73 76 80 83 86 89 93 95 95 95 92 88 83 79 73 66 60 57 53 50 46 42 37 33 31 30 30 30
71 73 75 78 80 81 81 78 74 70 68 68 68 71 74 77 81 85 89 92 94 96 95 93 88 82 75 68 63 57 51 45 42 41 41 40 36 30 24 22 21 22 22
73 75 77 80 80 79 76 73 69 67 67 68 71 75 79 83 87 89 91 92 90 88 84 79 73 67 59 53 50 45 39 35 33 33 32 32 29 23 18 15 15 16 17
74 76 78 79 78 74 71 68 66 66 69 72 76 80 84 87 89 88 85 79 74 69 65 62 59 55 50 46 42 38 33 32 31 30 28 25 21 16 13 12 12 14 16
Wind_Direction
264 262 261 262 266 272 278 282 284 286 287 287 288 289 289 287 286 286 288 290 292 294 295 296 296 296 296 295 294 292 291 289 287 287 287 287 288 289 289 289 290 291 291
259 260 264 270 276 281 284 285 286 286 286 286 287 288 290 291 292 294 296 297 297 298 299 299 299 299 298 297 295 293 291 289 287 287 287 286 286 287 287 288 288 289 290
260 265 271 276 280 283 285 287 288 289 289 290 290 292 294 296 298 299 300 300 301 301 301 300 299 298 297 295 293 291 289 288 286 286 286 287 287 285 286 287 288 288 289
265 270 273 276 278 280 283 286 288 291 293 294 296 298 299 301 301 301 301 302 301 301 300 299 297 296 294 293 292 290 289 289 288 288 288 288 289 289 288 287 287 288 288
269 272 273 274 276 278 282 286 290 293 296 298 299 300 301 300 300 300 299 299 298 297 296 295 294 293 292 291 290 290 290 290 289 289 289 289 289 289 289 289 287 286 288
268 270 272 274 276 280 285 290 293 296 297 298 298 298 298 297 297 296 295 295 294 294 293 292 292 291 290 289 289 289 289 290 289 289 289 289 289 290 289 289 289 288 288
265 267 272 277 281 286 290 292 294 294 294 295 295 295 295 295 295 295 295 295 296 295 295 295 294 294 293 292 292 291 291 290 290 290 289 289 289 289 288 288 287 286 286
266 272 280 285 288 290 291 292 291 291 292 293 294 294 295 296 297 298 299 299 299 299 298 298 297 296 295 294 293 292 291 290 289 289 288 288 288 288 287 286 284 283 281
275 283 286 286 287 288 289 290 290 290 291 293 294 296 298 299 300 300 301 301 301 300 300 299 299 298 296 295 294 293 291 290 289 288 287 287 286 286 286 285 284 283 281
282 284 284 285 288 289 290 289 290 291 294 295 297 298 299 299 300 300 300 300 300 300 300 299 298 297 296 295 294 292 291 290 289 288 287 286 285 284 284 283 283 283 283
281 282 284 287 289 290 290 292 294 297 298 298 299 299 299 300 300 300 300 299 299 298 297 297 296 295 294 293 292 290 289 288 287 287 286 286 285 284 284 283 283 282 283
280 282 285 289 291 293 295 297 299 300 300 300 299 299 299 299 299 299 299 298 298 297 296 296 294 293 292 291 289 287 286 286 286 285 285 285 285 284 284 284 284 284 283
284 288 292 294 296 298 300 301 301 301 301 300 300 300 300 300 300 300 299 299 298 298 297 296 294 293 292 290 289 288 287 287 287 287 286 286 286 285 285 285 284 284 284
291 294 296 298 300 301 302 302 302 302 301 301 301 301 301 301 301 300 300 299 298 297 296 295 294 294 293 292 291 291 290 290 290 289 288 288 287 286 285 285 284 284 283
296 298 300 301 301 302 303 302 302 302 301 301 302 302 302 302 301 300 300 299 298 297 296 296 295 295 295 294 294 294 293 292 291 290 289 288 287 286 285 284 283 283 282
299 301 302 302 302 302 302 301 301 301 302 302 303 302 302 302 301 300 300 299 298 297 297 297 297 298 298 297 297 296 294 292 291 289 288 287 286 284 283 283 283 283 283
301 302 302 302 302 302 301 302 302 302 303 303 303 303 303 303 302 300 299 299 299 299 299 299 299 300 299 299 298 297 295 294 292 290 288 286 285 284 282 281 281 282 283
302 302 302 301 302 302 302 303 303 304 305 305 305 304 304 303 301 300 300 300 300 300 301 301 301 301 301 300 299 298 297 295 294 292 291 288 286 284 283 281 280 280 281
302 302 302 302 302 303 303 304 305 306 306 306 305 305 303 302 301 301 301 301 301 301 301 302 302 302 302 302 301 300 299 298 296 295 293 291 288 285 283 281 279 278 278
303 303 303 303 304 305 306 307 307 307 307 307 305 304 303 302 301 301 300 300 300 301 301 302 302 303 303 303 302 302 301 300 299 298 296 294 291 287 284 282 281 279 278
304 305 305 306 307 307 308 308 309 309 308 307 305 303 302 301 301 301 301 301 301 302 302 302 302 303 302 302 302 302 301 301 300 299 297 294 291 288 285 283 281 280 279
306 307 308 308 308 308 309 310 309 309 308 306 305 304 303 303 303 303 304 304 304 303 303 303 302 302 302 301 301 301 301 301 300 300 298 296 292 288 283 279 278 278 279
308 308 308 309 309 310 310 310 310 309 307 306 306 305 305 306 306 306 306 305 305 304 303 303 302 302 302 301 301 300 300 300 300 300 299 297 293 288 281 275 273 275 277
308 308 309 310 311 311 311 310 310 309 308 308 308 308 308 308 307 307 307 306 305 304 304 303 303 303 303 302 300 300 299 299 298 298 297 296 293 286 276 268 268 274 278
308 308 310 311 311 311 311 310 310 310 310 310 310 310 310 309 308 307 307 307 307 307 308 308 309 309 308 306 304 303 303 301 299 298 296 293 288 279 268 263 268 276 279
308 310 311 311 311 311 310 310 311 311 312 312 312 312 311 310 309 308 308 310 311 312 313 314 314 314 313 312 310 309 309 308 307 307 302 294 282 264 250 251 265 276 277
Height
5819 5820 5820 5821 5821 5821 5820 5819 5817 5815 5812 5809 5806 5803 5801 5798 5796 5793 5791 5788 5786 5783 5780 5777 5774 5770 5767 5764 5760 5756 5752 5748 5743 5738 5735 5731 5727 5724 5719 5714 5710 5706 5701
5815 5816 5816 5816 5815 5814 5813 5811 5810 5808 5806 5803 5800 5797 5794 5791 5789 5786 5784 5781 5778 5775 5771 5768 5765 5761 5757 5754 5749 5744 5740 5737 5731 5726 5721 5719 5718 5713 5706 5701 5697 5692 5688
5811 5811 5810 5810 5809 5807 5805 5803 5801 5800 5798 5796 5793 5791 5788 5785 5782 5779 5776 5772 5769 5765 5761 5758 5754 5750 5746 5742 5737 5731 5726 5722 5718 5712 5706 5701 5700 5699 5695 5688 5683 5679 5674
5806 5805 5804 5803 5802 5800 5798 5797 5794 5792 5790 5788 5785 5783 5780 5777 5774 5770 5767 5763 5758 5754 5750 5746 5742 5738 5733 5728 5723 5718 5712 5707 5703 5698 5692 5686 5681 5676 5675 5675 5669 5663 5659
5800 5799 5798 5797 5796 5794 5792 5790 5788 5785 5782 5780 5777 5775 5772 5768 5765 5761 5757 5753 5748 5743 5739 5734 5729 5724 5719 5714 5708 5702 5697 5691 5686 5681 5676 5670 5664 5658 5652 5652 5653 5648 5644
5794 5793 5792 5790 5789 5788 5786 5784 5781 5778 5775 5772 5769 5766 5762 5759 5755 5751 5746 5742 5737 5732 5726 5721 5716 5710 5704 5699 5693 5687 5681 5674 5668 5663 5657 5651 5646 5642 5636 5631 5630 5629 5629
5788 5786 5785 5784 5783 5782 5780 5777 5774 5770 5767 5763 5760 5756 5752 5747 5743 5739 5734 5729 5724 5719 5713 5707 5701 5695 5688 5682 5676 5671 5665 5658 5652 5646 5641 5635 5630 5626 5620 5615 5611 5608 5608
5781 5780 5779 5778 5776 5774 5772 5768 5765 5761 5757 5753 5749 5745 5740 5735 5730 5725 5720 5715 5709 5704 5698 5692 5685 5678 5672 5665 5659 5654 5648 5642 5636 5631 5625 5619 5614 5609 5604 5599 5594 5589 5588
5774 5773 5772 5770 5768 5766 5763 5759 5755 5751 5747 5742 5738 5733 5728 5723 5718 5712 5706 5700 5694 5688 5681 5674 5667 5660 5653 5646 5640 5633 5627 5621 5616 5611 5606 5601 5596 5590 5584 5578 5573 5568 5564
5767 5765 5763 5761 5760 5757 5754 5749 5745 5741 5737 5732 5728 5722 5717 5711 5705 5699 5693 5686 5678 5671 5664 5656 5648 5640 5633 5625 5618 5611 5605 5599 5594 5588 5583 5578 5573 5568 5563 5558 5553 5547 5541
5760 5758 5756 5754 5751 5748 5744 5740 5736 5732 5727 5722 5716 5710 5704 5697 5691 5684 5677 5669 5662 5653 5645 5636 5628 5620 5612 5603 5595 5588 5582 5576 5571 5565 5559 5555 5549 5544 5540 5535 5531 5526 5520
5753 5751 5749 5746 5742 5738 5734 5730 5726 5721 5715 5709 5703 5696 5689 5682 5675 5668 5660 5652 5643 5634 5625 5616 5607 5598 5589 5581 5572 5564 5558 5552 5547 5543 5537 5532 5526 5522 5517 5512 5508 5504 5500
5745 5743 5740 5736 5732 5728 5723 5719 5713 5707 5701 5694 5687 5680 5673 5665 5658 5650 5641 5632 5623 5613 5603 5592 5583 5573 5563 5555 5546 5539 5534 5528 5523 5518 5512 5508 5502 5498 5494 5489 5485 5482 5478
5736 5734 5730 5726 5721 5716 5710 5704 5698 5691 5684 5677 5670 5662 5655 5647 5639 5630 5621 5610 5600 5589 5578 5568 5557 5547 5538 5529 5521 5515 5510 5505 5500 5494 5488 5483 5478 5473 5469 5466 5464 5460 5457
5727 5723 5719 5714 5708 5703 5696 5690 5683 5675 5668 5660 5652 5644 5636 5627 5618 5608 5597 5586 5575 5563 5552 5543 5534 5524 5515 5506 5498 5493 5488 5483 5478 5473 5467 5462 5456 5450 5445 5442 5441 5438 5435
5715 5711 5706 5700 5695 5688 5682 5674 5667 5659 5651 5643 5634 5626 5616 5606 5595 5584 5573 5561 5550 5539 5528 5519 5511 5503 5494 5486 5479 5472 5467 5461 5456 5451 5447 5442 5436 5429 5422 5418 5416 5414 5411
5704 5698 5692 5686 5680 5673 5666 5658 5651 5643 5634 5625 5615 5605 5595 5583 5571 5559 5548 5537 5527 5518 5509 5500 5492 5484 5476 5467 5460 5452 5446 5440 5433 5427 5422 5418 5413 5405 5398 5396 5395 5393 5390
5691 5685 5679 5673 5666 5658 5650 5642 5634 5625 5616 5605 5593 5582 5571 5560 5547 5536 5525 5516 5508 5499 5491 5483 5474 5466 5458 5448 5440 5431 5425 5417 5409 5401 5395 5390 5387 5380 5370 5369 5371 5371 5370
5679 5673 5666 5659 5651 5643 5635 5626 5617 5607 5596 5584 5572 5559 5548 5537 5526 5516 5507 5498 5491 5483 5474 5465 5456 5447 5439 5428 5418 5408 5400 5393 5384 5376 5369 5362 5356 5352 5343 5340 5342 5345 5347
5666 5659 5651 5643 5635 5626 5617 5608 5598 5587 5575 5563 5550 5537 5526 5516 5507 5499 5490 5481 5473 5464 5455 5447 5436 5426 5416 5405 5394 5383 5374 5365 5357 5351 5344 5336 5328 5324 5319 5316 5316 5319 5321
5651 5643 5634 5625 5617 5609 5599 5589 5579 5567 5554 5541 5529 5519 5508 5498 5490 5481 5472 5462 5454 5445 5436 5427 5417 5405 5393 5381 5370 5359 5348 5339 5331 5325 5319 5313 5307 5302 5299 5296 5296 5297 5299
5633 5625 5616 5608 5599 5591 5581 5569 5558 5546 5534 5523 5512 5502 5492 5482 5472 5463 5453 5443 5432 5422 5411 5401 5392 5381 5369 5356 5344 5335 5325 5315 5308 5303 5297 5292 5288 5285 5283 5282 5282 5283 5284
5616 5607 5599 5590 5580 5570 5559 5548 5537 5526 5515 5505 5495 5486 5477 5466 5455 5444 5433 5423 5410 5397 5385 5374 5363 5354 5344 5332 5321 5312 5305 5298 5291 5285 5280 5276 5273 5271 5271 5271 5272 5274 5275
5599 5590 5581 5571 5561 5549 5537 5527 5517 5507 5498 5489 5479 5470 5460 5450 5439 5426 5412 5399 5385 5371 5359 5347 5336 5327 5319 5309 5301 5295 5290 5285 5280 5275 5270 5265 5262 5261 5262 5264 5265 5267 5268
5583 5573 5563 5553 5542 5530 5518 5508 5499 5491 5482 5474 5464 5454 5443 5430 5419 5406 5392 5377 5363 5345 5331 5321 5311 5303 5298 5291 5284 5278 5276 5272 5269 5265 5261 5257 5255 5254 5256 5258 5261 5262 5263
5566 5556 5545 5534 5524 5512 5501 5492 5484 5475 5467 5458 5448 5436 5423 5410 5395 5382 5373 5360 5343 5330 5316 5305 5296 5289 5283 5277 5273 5269 5265 5261 5258 5255 5252 5250 5248 5249 5251 5254 5257 5258 5259